Location: Abundant Grace Fellowship
(35.0349°N, 90.0924°W)
Time: 08:49:48
(UTC+00:00)

Lacrosse 4 Rocket - Pass Details

Date: 18 January 2026
Orbit: 513 x 564 km, 68.0° (Epoch: 10 February)

Event Time Altitude Azimuth Distance (km) Brightness Sun altitude
Exits shadow 11:20:01 51° 204° (SSW) 665 1.5 -21.7°
Maximum altitude 11:20:57 90° 332° (NNW) 528 1.1 -21.5°
Drops below altitude 10° 11:24:52 10° 25° (NNE) 1,754 4.0 -20.7°
Sets 11:27:02 0° 25° (NNE) 2,639 5.0 -20.3°
